Back to catalog

CZ-2C DEB

AliveSSO
NORAD 37767·DEBRIS·🇨🇳 China

Launched Jul 29, 2011 from Jiuquan Satellite Launch Center

Loading…

Next Passes (next 24 hours)

TLE

FreshSource: Space-Track

Epoch: Sep 14, 2026, 10:54 UTC

1 37767U 11039C   26257.45471350  .00002322  00000-0  61394-3 0  9990
2 37767  97.9151 324.2771 0121830 163.8884 196.6238 14.45372643790047

Track CZ-2C DEB in real time with AllMySat

Download on the App Store